GW0625 Weather Reports


Display with metric or nautical units.
time (UTC)temp
F
wind
direction
speed
MPH
gust
MPH
rain 1hr
in
rain 24hr
in
rain mn
in
humidity
%
barometer
mb
20260503003042 64 0 0.0 4.0 0.00 0.00 0.00 36 1015.6
20260503001554 65 43 2.0 10.0 0.00 0.00 0.00 34 1015.6
20260503000043 67 0 0.0 4.0 0.00 0.00 0.00 34 1015.7
20260502234543 67 108 1.0 6.0 0.00 0.00 0.00 33 1015.8
20260502233045 65 0 1.0 5.0 0.00 0.00 0.00 34 1016.1
20260502231539 65 0 0.0 3.0 0.00 0.00 0.00 34 1016.2
20260502230037 66 253 1.0 4.0 0.00 0.00 0.00 33 1016.3
20260502224541 66 170 0.0 4.0 0.00 0.00 0.00 33 1016.5
20260502223043 64 236 1.0 7.0 0.00 0.00 0.00 38 1016.9
20260502221542 64 59 1.0 10.0 0.00 0.00 0.00 36 1017.1
20260502220042 64 355 3.0 10.0 0.00 0.00 0.00 36 1017.2
20260502214534 66 351 4.0 10.0 0.00 0.00 0.00 34 1017.4
20260502213035 64 0 1.0 6.0 0.00 0.00 0.00 36 1017.5
20260502211544 63 31 5.0 14.0 0.00 0.00 0.00 37 1017.7
20260502210049 64 28 3.0 8.0 0.00 0.00 0.00 37 1017.7
20260502204546 65 39 3.0 10.0 0.00 0.00 0.00 34 1017.8
20260502203040 65 298 2.0 12.0 0.00 0.00 0.00 36 1018.0
20260502201549 64 92 0.0 11.0 0.00 0.00 0.00 38 1018.2
20260502200036 63 0 3.0 14.0 0.00 0.00 0.00 38 1018.3
20260502194543 62 72 5.0 10.0 0.00 0.00 0.00 38 1018.5
20260502193044 61 0 1.0 10.0 0.00 0.00 0.00 38 1018.7
20260502191552 60 17 3.0 8.0 0.00 0.00 0.00 41 1018.9
20260502190048 60 27 4.0 13.0 0.00 0.00 0.00 44 1019.3
20260502184548 59 351 4.0 12.0 0.00 0.00 0.00 44 1019.3
20260502183050 59 360 8.0 12.0 0.00 0.00 0.00 44 1019.3
20260502181545 59 26 4.0 12.0 0.00 0.00 0.00 44 1019.4
20260502163052 59 22 7.0 15.0 0.00 0.00 0.00 46 1019.3
20260502161540 59 9 6.0 14.0 0.00 0.00 0.00 45 1019.3
20260502151542 58 355 5.0 11.0 0.00 0.00 0.00 46 1019.2
20260502123041 45 310 1.0 5.0 0.00 0.00 0.00 63 1018.3
20260502121550 45 309 1.0 4.0 0.00 0.00 0.00 64 1018.1
20260502114543 45 340 2.0 5.0 0.00 0.00 0.00 62 1018.0
20260502113039 46 339 2.0 7.0 0.00 0.00 0.00 60 1017.9
20260502111534 47 16 4.0 12.0 0.00 0.00 0.00 58 1017.8
20260502110042 49 33 7.0 10.0 0.00 0.00 0.00 55 1017.6
20260502104543 48 11 6.0 11.0 0.00 0.00 0.00 55 1017.3
20260502103044 49 52 5.0 15.0 0.00 0.00 0.00 54 1017.1
20260502101550 46 5 2.0 8.0 0.00 0.00 0.00 58 1017.0
20260502070039 51 259 4.0 7.0 0.00 0.00 0.00 42 1014.8
20260502064543 50 265 3.0 8.0 0.00 0.00 0.00 43 1014.9
20260502063041 55 250 4.0 7.0 0.00 0.00 0.00 36 1014.9
20260502061543 58 274 0.0 6.0 0.00 0.00 0.00 31 1014.9
20260502060044 54 274 3.0 8.0 0.00 0.00 0.00 36 1014.9
20260502054556 55 284 4.0 8.0 0.00 0.00 0.00 35 1014.9
20260502053036 55 284 3.0 7.0 0.00 0.00 0.00 34 1014.9
20260502051543 56 252 4.0 7.0 0.00 0.00 0.00 34 1014.9
20260502050038 56 265 4.0 7.0 0.00 0.00 0.00 34 1014.9
20260502044541 58 285 3.0 8.0 0.00 0.00 0.00 32 1015.0
20260502043044 57 253 1.0 4.0 0.00 0.00 0.00 34 1014.7
20260502041601 59 313 0.0 3.0 0.00 0.00 0.00 30 1014.6
20260502040043 60 306 2.0 6.0 0.00 0.00 0.00 30 1014.5
20260502034542 61 289 1.0 4.0 0.00 0.00 0.00 29 1014.5
20260502033053 59 0 2.0 7.0 0.00 0.00 0.00 32 1014.4
20260502031541 58 0 0.0 9.0 0.00 0.00 0.00 31 1014.1
20260502030042 63 0 0.0 1.0 0.00 0.00 0.00 25 1013.8
20260502024541 64 0 0.0 3.0 0.00 0.00 0.00 26 1013.8
20260502023035 64 50 1.0 3.0 0.00 0.00 0.00 26 1013.7
20260502021536 65 0 0.0 2.0 0.00 0.00 0.00 26 1013.7
20260502020045 66 0 0.0 3.0 0.00 0.00 0.00 24 1013.6
20260502014541 68 0 1.0 4.0 0.00 0.00 0.00 23 1013.4
20260502013041 70 42 1.0 5.0 0.00 0.00 0.00 22 1013.5
20260502011540 71 360 2.0 4.0 0.00 0.00 0.00 21 1013.5
20260502010037 72 0 2.0 5.0 0.00 0.00 0.00 20 1013.8
20260502004542 73 0 0.0 6.0 0.00 0.00 0.00 19 1013.9